Portada
METAR-TAF:

METAR-TAF

Aeroports :

Wiscasset Airport

Wiscasset, Maine, Estats Units d'Amèrica

latitud: 43-57-49N, longitud: 069-42-42W, altitud: 20 m

Observació

L'informe es va fer fa 47 minuts, a les 03:53 UTC
Vent calma
Temperatura 11°C
Humitat 94%
Pressió 1027 hPa
Visibilitat: 16.1 km
Cel ennuvolat a una alçada de 3200 ft
Cel cobert a una alçada de 5500 ft

METAR: KIWI 230353Z AUTO 00000KT 10SM BKN032 OVC055 11/10 A3032 RMK AO2 SLP268 T01110100

Hora: 00:40 (04:40 UTC)


TAF: manca

Observacions i pronòstics meteorològics de més de 4000 aeroports (METAR i TAF).

Les estacions disponibles són els punts grocs i vermells al mapa.

Posi el ratolí al punt desitjat per veure el nom de l'estació.

Feu clic per veure les observacions i els pronòstics meteorològics.

Per canviar el mapa: feu clic els botons verds amb una creu de color negre per apropar; al botó verd amb un guió per allunyar la imatge; o en les fletxes verdes per a mapes adjacents.


METAR-TAF: